"Timestamp","TZ","WindDir_Mean (deg)","WindSpd_Mean (km/h)","WindSpd_Min (km/h)","WindSpd_Max (km/h)","Temp_Mean (deg)","RH_Mean (%)","MSLP_Mean (hPa)","Rain_Acc (mm)","Rain_Intensity (mm/h)","Hail_Acc (hits/cm2)","Hail_Intensity (hits/cm2hr)","Solar_Mean (W/m2)"
2021/07/03 00:00:00.013,n,238,3.6,3.24,3.96,16.700002,88.2,1018.72,0,0,0,0,0.03746
2021/07/03 00:01:00.000,n,204,1.8,1.44,2.16,16.700002,88.2,1018.72,0,0,0,0,0.033951
2021/07/03 00:02:00.000,n,293,1.08,0.72,1.44,16.700002,88.2,1018.72,0,0,0,0,0.03746
2021/07/03 00:03:00.000,n,353,1.8,1.44,1.8,16.8,88.2,1018.82,0,0,0,0,0.033073
2021/07/03 00:04:00.003,n,95,1.08,0.72,1.44,16.8,88.3,1018.82,0,0,0,0,0.031357
2021/07/03 00:05:00.000,n,341,1.8,0.36,2.52,16.8,88.3,1018.82,0,0,0,0,0.035706
2021/07/03 00:06:00.000,n,280,1.08,0.36,1.44,16.8,88.3,1018.82,0,0,0,0,0.033951
2021/07/03 00:07:00.009,n,19,4.32,3.96,4.32,16.8,88.3,1018.82,0,0,0,0,0.034828
2021/07/03 00:08:00.006,n,30,5.04,4.68,5.4,16.8,88.3,1018.82,0,0,0,0,0.030441
2021/07/03 00:09:00.003,n,19,3.96,3.6,4.68,16.8,88.2,1018.82,0,0,0,0,0.035706
2021/07/03 00:10:00.000,n,13,3.24,2.52,3.6,16.8,88.2,1018.82,0,0,0,0,0.036583
2021/07/03 00:11:00.000,n,252,1.08,0.72,1.08,16.8,88.2,1018.72,0,0,0,0,0.033951
2021/07/03 00:12:00.000,n,246,2.16,1.8,2.52,16.8,88.3,1018.72,0,0,0,0,0.0383
2021/07/03 00:13:00.000,n,257,2.16,1.8,2.52,16.8,88.3,1018.72,0,0,0,0,0.036583
2021/07/03 00:14:00.005,n,207,1.08,0.72,1.44,16.8,88.2,1018.72,0,0,0,0,0.0383
2021/07/03 00:15:00.003,n,167,0,0,0.36,16.8,88.3,1018.82,0,0,0,0,0.03746
2021/07/03 00:16:00.000,n,338,0.72,0.36,1.08,16.8,88.3,1018.82,0,0,0,0,0.03746
2021/07/03 00:17:00.012,n,67,1.44,1.08,2.16,16.8,88.3,1018.72,0,0,0,0,0.033951
2021/07/03 00:18:00.010,n,123,2.52,2.16,2.88,16.8,88.3,1018.72,0,0,0,0,0.040054
2021/07/03 00:19:00.000,n,158,2.52,2.16,2.52,16.8,88.3,1018.72,0,0,0,0,0.03746
2021/07/03 00:20:00.003,n,186,2.52,2.16,2.52,16.8,88.2,1018.62,0,0,0,0,0.034828
2021/07/03 00:21:00.000,n,159,2.88,2.88,3.24,16.8,88.2,1018.62,0,0,0,0,0.040932
2021/07/03 00:22:00.000,n,151,3.96,3.96,4.32,16.8,88.2,1018.62,0,0,0,0,0.040054
2021/07/03 00:23:00.000,n,147,3.6,2.88,3.96,16.8,88.2,1018.62,0,0,0,0,0.039177
2021/07/03 00:24:00.010,n,137,4.32,3.96,4.32,16.8,88.2,1018.62,0,0,0,0,0.043526
2021/07/03 00:25:00.007,n,126,3.24,2.88,3.24,16.8,88.2,1018.62,0,0,0,0,0.039177
2021/07/03 00:26:00.004,n,125,3.96,3.24,3.96,16.8,88.2,1018.62,0,0,0,0,0.035706
2021/07/03 00:27:00.002,n,142,4.32,3.6,4.68,16.8,88.2,1018.62,0,0,0,0,0.036583
2021/07/03 00:28:00.000,n,138,5.04,4.68,5.04,16.8,88.2,1018.62,0,0,0,0,0.040932
2021/07/03 00:29:00.000,n,132,2.88,2.52,3.24,16.8,88.2,1018.62,0,0,0,0,0.039177
2021/07/03 00:30:00.000,n,121,3.24,2.88,3.6,16.8,88.3,1018.62,0,0,0,0,0.041809
2021/07/03 00:31:00.000,n,127,2.16,1.44,2.88,16.8,88.3,1018.62,0,0,0,0,0.042648
2021/07/03 00:32:00.004,n,153,5.4,4.68,6.12,16.8,88.3,1018.52,0,0,0,0,0.036583
2021/07/03 00:33:00.002,n,169,4.68,3.96,5.4,16.8,88.2,1018.52,0,0,0,0,0.035706
2021/07/03 00:34:00.000,n,201,2.88,2.52,3.24,16.700002,88.2,1018.52,0,0,0,0,0.0383
2021/07/03 00:35:00.012,n,166,3.6,3.24,3.96,16.700002,88.2,1018.52,0,0,0,0,0.040054
2021/07/03 00:36:00.009,n,176,3.24,2.88,3.24,16.700002,88.2,1018.62,0,0,0,0,0.0383
2021/07/03 00:37:00.000,n,148,2.52,2.16,2.88,16.700002,88.2,1018.62,0,0,0,0,0.040932
2021/07/03 00:38:00.002,n,146,2.16,2.16,2.52,16.700002,88.2,1018.62,0,0,0,0,0.039177
2021/07/03 00:39:00.000,n,179,2.16,2.16,2.16,16.700002,88.2,1018.62,0,0,0,0,0.040932
2021/07/03 00:40:00.000,n,210,1.44,1.44,1.44,16.700002,88.2,1018.62,0,0,0,0,0.034828
2021/07/03 00:41:00.000,n,164,0.36,0.36,1.08,16.700002,88.2,1018.62,0,0,0,0,0.034828
2021/07/03 00:42:00.007,n,188,2.16,2.16,2.52,16.700002,88.2,1018.62,0,0,0,0,0.041809
2021/07/03 00:43:00.004,n,224,2.52,2.16,2.88,16.700002,88.3,1018.62,0,0,0,0,0.0383
2021/07/03 00:44:00.001,n,226,1.44,1.44,2.16,16.700002,88.3,1018.72,0,0,0,0,0.033951
2021/07/03 00:45:00.015,n,263,2.52,2.16,2.52,16.700002,88.3,1018.72,0,0,0,0,0.0383
2021/07/03 00:46:00.000,n,260,2.16,2.16,2.52,16.700002,88.3,1018.72,0,0,0,0,0.035706
2021/07/03 00:47:00.000,n,251,1.44,1.44,1.8,16.700002,88.3,1018.72,0,0,0,0,0.039177
2021/07/03 00:48:00.000,n,245,0.72,0.36,1.08,16.700002,88.3,1018.72,0,0,0,0,0.040932
2021/07/03 00:49:00.000,n,244,1.08,0.72,1.08,16.700002,88.3,1018.72,0,0,0,0,0.03746
2021/07/03 00:50:00.005,n,269,0.72,0.72,1.08,16.700002,88.3,1018.72,0,0,0,0,0.034828
2021/07/03 00:51:00.002,n,273,0.72,0.72,0.72,16.700002,88.3,1018.72,0,0,0,0,0.0383
2021/07/03 00:52:00.000,n,221,0.36,0,0.72,16.700002,88.3,1018.72,0,0,0,0,0.040054
2021/07/03 00:53:00.012,n,82,1.08,0.72,1.08,16.700002,88.3,1018.72,0,0,0,0,0.041809
2021/07/03 00:54:00.009,n,274,0,0,0.36,16.700002,88.3,1018.72,0,0,0,0,0.0383
2021/07/03 00:55:00.000,n,93,0.72,0.36,0.72,16.700002,88.3,1018.72,0,0,0,0,0.034828
2021/07/03 00:56:00.000,n,205,0.36,0.36,0.36,16.700002,88.3,1018.72,0,0,0,0,0.034828
2021/07/03 00:57:00.000,n,165,0.36,0,0.72,16.700002,88.3,1018.72,0,0,0,0,0.03746
2021/07/03 00:58:00.000,n,154,0.72,0.36,1.08,16.700002,88.3,1018.72,0,0,0,0,0.039177
2021/07/03 00:59:00.000,n,77,2.52,2.16,2.88,16.700002,88.3,1018.72,0,0,0,0,0.0383
2021/07/03 01:00:00.008,n,72,2.88,1.8,3.6,16.8,88.4,1018.82,0,0,0,0,0.03746
2021/07/03 01:01:00.005,n,72,3.96,3.24,4.32,16.8,88.3,1018.82,0,0,0,0,0.040054
2021/07/03 01:02:00.002,n,73,3.96,3.96,4.32,16.700002,88.3,1018.82,0,0,0,0,0.040054
2021/07/03 01:03:00.015,n,70,4.32,4.32,4.68,16.700002,88.3,1018.82,0,0,0,0,0.03746
2021/07/03 01:04:00.000,n,74,3.6,3.24,3.6,16.700002,88.3,1018.82,0,0,0,0,0.0383
2021/07/03 01:05:00.000,n,99,2.16,2.16,2.88,16.700002,88.3,1018.82,0,0,0,0,0.0383
2021/07/03 01:06:00.000,n,104,3.6,3.24,4.32,16.700002,88.3,1018.82,0,0,0,0,0.040932
2021/07/03 01:07:00.004,n,87,3.24,3.24,3.6,16.700002,88.3,1018.82,0,0,0,0,0.036583
2021/07/03 01:08:00.002,n,101,3.6,3.6,4.32,16.700002,88.2,1018.82,0,0,0,0,0.035706
2021/07/03 01:09:00.000,n,101,1.44,0.72,2.16,16.700002,88.3,1018.72,0,0,0,0,0.039177
2021/07/03 01:10:00.011,n,133,2.16,1.44,2.88,16.700002,88.3,1018.72,0,0,0,0,0.040054
2021/07/03 01:11:00.008,n,132,2.52,2.16,2.88,16.700002,88.3,1018.72,0,0,0,0,0.039177
2021/07/03 01:12:00.005,n,253,0.36,0.36,0.72,16.700002,88.3,1018.72,0,0,0,0,0.0383
2021/07/03 01:13:00.000,n,255,2.52,2.16,3.96,16.700002,88.3,1018.82,0,0,0,0,0.040054
2021/07/03 01:14:00.000,n,247,2.88,2.52,3.24,16.700002,88.3,1018.82,0,0,0,0,0.041809
2021/07/03 01:15:00.000,n,238,3.6,3.6,3.96,16.700002,88.3,1018.72,0.03,1.2,0,0,0.039177
2021/07/03 01:16:00.003,n,248,3.96,3.24,3.96,16.700002,88.3,1018.72,0.06,1.4,0,0,0.041809
2021/07/03 01:17:00.000,n,228,2.16,2.16,2.52,16.700002,88.3,1018.72,0.07,0.9,0,0,0.035706
2021/07/03 01:18:00.000,n,210,2.16,1.8,2.16,16.700002,88.3,1018.72,0.07,0.2,0,0,0.044441
2021/07/03 01:19:00.012,n,210,1.08,0.72,1.08,16.700002,88.3,1018.72,0.1,1.5,0,0,0.040054
2021/07/03 01:20:00.010,n,221,1.44,0.72,1.44,16.700002,88.3,1018.62,0.12,1.6,0,0,0.0383
2021/07/03 01:21:00.007,n,181,1.44,1.08,1.8,16.700002,88.4,1018.62,0.13,0.2,0,0,0.035706
2021/07/03 01:22:00.000,n,187,1.8,1.44,1.8,16.700002,88.4,1018.62,0.13,0.1,0,0,0.039177
2021/07/03 01:23:00.000,n,179,3.24,3.24,3.6,16.700002,88.4,1018.62,0.13,0.1,0,0,0.03746
2021/07/03 01:24:00.003,n,190,2.16,2.16,2.52,16.700002,88.4,1018.52,0.14,0.2,0,0,0.040932
2021/07/03 01:25:00.001,n,228,1.8,1.8,2.16,16.700002,88.4,1018.52,0.15,0.6,0,0,0.035706
2021/07/03 01:26:00.000,n,222,1.44,0.72,1.44,16.700002,88.4,1018.52,0.17,0.7,0,0,0.033951
2021/07/03 01:27:00.000,n,245,1.8,1.44,2.16,16.8,88.4,1018.52,0.19,1.6,0,0,0.036583
2021/07/03 01:28:00.011,n,231,1.44,1.08,1.44,16.8,88.5,1018.52,0.2,1,0,0,0.03746
2021/07/03 01:29:00.008,n,201,1.44,1.08,1.8,16.8,88.4,1018.52,0.22,1.2,0,0,0.03746
2021/07/03 01:30:00.006,n,213,1.08,0.72,1.44,16.8,88.4,1018.52,0.25,1,0,0,0.040054
2021/07/03 01:31:00.000,n,135,1.08,0.36,1.08,16.8,88.4,1018.52,0.26,1.2,0,0,0.041809
2021/07/03 01:32:00.002,n,90,1.08,0.72,1.08,16.8,88.4,1018.52,0.27,0.7,0,0,0.03746
2021/07/03 01:33:00.000,n,114,1.08,0.72,1.08,16.700002,88.4,1018.52,0.27,0,0,0,0.033951
2021/07/03 01:34:00.000,n,104,0.72,0.36,0.72,16.700002,88.4,1018.52,0.27,0,0,0,0.03746
2021/07/03 01:35:00.000,n,52,0.72,0.36,1.44,16.700002,88.4,1018.62,0.27,0,0,0,0.034828
2021/07/03 01:36:00.007,n,47,0.72,0.36,1.08,16.8,88.4,1018.62,0.27,0,0,0,0.032234
2021/07/03 01:37:00.004,n,66,1.08,0.36,2.16,16.8,88.4,1018.52,0.27,0,0,0,0.034828
2021/07/03 01:38:00.001,n,332,0.36,0,0.72,16.8,88.4,1018.52,0.27,0,0,0,0.03746
2021/07/03 01:39:00.015,n,14,1.44,1.08,1.8,16.8,88.4,1018.52,0.27,0,0,0,0.034828
2021/07/03 01:40:00.000,n,353,1.44,1.08,1.44,16.8,88.4,1018.52,0.27,0,0,0,0.035706
2021/07/03 01:41:00.000,n,30,0.36,0.36,0.36,16.8,88.4,1018.52,0.27,0,0,0,0.039177
2021/07/03 01:42:00.000,n,266,2.16,2.16,2.52,16.8,88.4,1018.52,0.27,0,0,0,0.036583
2021/07/03 01:43:00.004,n,251,3.96,3.6,3.96,16.8,88.3,1018.42,0.27,0,0,0,0.040054
2021/07/03 01:44:00.001,n,266,3.6,3.6,3.96,16.8,88.3,1018.42,0.27,0,0,0,0.034828
2021/07/03 01:45:00.000,n,270,3.96,3.96,4.32,16.700002,88.3,1018.42,0.27,0,0,0,0.033073
2021/07/03 01:46:00.012,n,262,4.68,4.32,5.04,16.700002,88.3,1018.42,0.27,0,0,0,0.0383
2021/07/03 01:47:00.009,n,265,5.4,5.4,5.76,16.700002,88.3,1018.42,0.28,0,0,0,0.035706
2021/07/03 01:48:00.007,n,265,5.04,5.04,5.4,16.700002,88.2,1018.42,0.28,0,0,0,0.033951
2021/07/03 01:49:00.000,n,250,4.68,4.68,5.04,16.700002,88.2,1018.42,0.28,0,0,0,0.040932
2021/07/03 01:50:00.000,n,231,2.88,2.16,3.6,16.700002,88.2,1018.32,0.28,0,0,0,0.041809
2021/07/03 01:51:00.003,n,195,2.52,1.8,3.24,16.700002,88.2,1018.32,0.29,0.7,0,0,0.040932
2021/07/03 01:52:00.001,n,110,2.16,2.16,2.52,16.700002,88.3,1018.32,0.3,0.1,0,0,0.03746
2021/07/03 01:53:00.000,n,128,1.8,1.08,1.8,16.700002,88.3,1018.22,0.31,0.7,0,0,0.039177
2021/07/03 01:54:00.000,n,50,2.16,2.16,2.16,16.700002,88.3,1018.22,0.31,0.2,0,0,0.040054
2021/07/03 01:55:00.011,n,54,1.08,1.08,1.08,16.700002,88.4,1018.22,0.32,0.6,0,0,0.036583
2021/07/03 01:56:00.000,n,192,1.08,0.72,1.8,16.700002,88.4,1018.22,0.33,0.4,0,0,0.039177
2021/07/03 01:57:00.006,n,21,1.8,1.8,1.8,16.700002,88.4,1018.22,0.34,0.3,0,0,0.036583
2021/07/03 01:58:00.000,n,322,1.8,1.44,2.16,16.700002,88.4,1018.22,0.35,0.5,0,0,0.033073
2021/07/03 01:59:00.004,n,341,2.16,1.8,3.96,16.700002,88.4,1018.22,0.36,0.7,0,0,0.0383
2021/07/03 02:00:00.000,n,20,2.52,2.52,2.52,16.700002,88.4,1018.22,0.37,0.5,0,0,0.039177
2021/07/03 02:01:00.000,n,45,0.72,0.36,1.44,16.700002,88.4,1018.22,0.37,0.2,0,0,0.033951
2021/07/03 02:02:00.007,n,12,2.16,0.72,3.6,16.700002,88.4,1018.12,0.38,0.5,0,0,0.036583
2021/07/03 02:03:00.000,n,25,3.96,3.96,4.32,16.700002,88.3,1018.12,0.38,0.1,0,0,0.03746
2021/07/03 02:04:00.004,n,31,4.32,4.32,4.32,16.700002,88.3,1018.12,0.39,0.4,0,0,0.034828
2021/07/03 02:05:00.013,n,28,3.96,3.6,4.32,16.700002,88.3,1018.12,0.4,0.6,0,0,0.035706
2021/07/03 02:06:00.004,n,351,3.24,2.52,4.32,16.6,88.3,1018.12,0.41,0.6,0,0,0.0383
2021/07/03 02:07:00.000,n,23,4.32,3.96,4.68,16.6,88.3,1018.12,0.43,1,0,0,0.033951
2021/07/03 02:08:00.000,n,17,4.32,3.96,5.04,16.6,88.3,1018.02,0.44,0.7,0,0,0.036583
2021/07/03 02:09:00.000,n,27,5.04,3.96,5.76,16.6,88.3,1018.02,0.46,0.8,0,0,0.035706
2021/07/03 02:10:00.000,n,30,3.96,3.6,5.04,16.6,88.3,1018.02,0.49,1.8,0,0,0.0383
2021/07/03 02:11:00.005,n,26,5.4,4.68,5.76,16.6,88.3,1017.92,0.51,1,0,0,0.033073
2021/07/03 02:12:00.011,n,27,3.24,2.88,3.6,16.6,88.4,1017.92,0.51,0.6,0,0,0.039177
2021/07/03 02:13:00.001,n,37,3.6,3.24,3.96,16.6,88.4,1017.92,0.53,0.7,0,0,0.036583
2021/07/03 02:14:00.007,n,29,3.24,2.16,3.6,16.700002,88.4,1017.82,0.53,0.4,0,0,0.036583
2021/07/03 02:15:00.014,n,30,4.68,4.32,4.68,16.700002,88.4,1017.82,0.55,0.4,0,0,0.03746
2021/07/03 02:16:00.000,n,51,3.6,3.24,3.6,16.700002,88.4,1017.72,0.55,0.4,0,0,0.036583
2021/07/03 02:17:00.000,n,48,3.24,3.24,3.6,16.700002,88.4,1017.72,0.57,0.9,0,0,0.029602
2021/07/03 02:18:00.000,n,25,8.64,7.92,9,16.700002,88.4,1017.62,0.59,1,0,0,0.032234
2021/07/03 02:19:00.006,n,31,5.4,5.04,6.12,16.700002,88.4,1017.62,0.6,0.6,0,0,0.032234
2021/07/03 02:20:00.000,n,13,7.56,6.12,10.08,16.700002,88.4,1017.62,0.61,1,0,0,0.032234
2021/07/03 02:21:00.001,n,46,8.28,7.56,9.36,16.6,88.3,1017.62,0.62,0.4,0,0,0.033951
2021/07/03 02:22:00.008,n,18,3.96,2.88,4.68,16.6,88.3,1017.62,0.62,0.2,0,0,0.036583
2021/07/03 02:23:00.014,n,349,9.36,8.28,9.72,16.6,88.3,1017.62,0.62,0,0,0,0.029602
2021/07/03 02:24:00.006,n,1,11.52,9,13.32,16.6,88.2,1017.62,0.63,0,0,0,0.03746
2021/07/03 02:25:00.000,n,357,6.12,5.76,6.84,16.6,88.2,1017.62,0.63,0,0,0,0.034828
2021/07/03 02:26:00.000,n,21,6.84,6.48,7.2,16.5,88.2,1017.62,0.63,0,0,0,0.03746
2021/07/03 02:27:00.000,n,344,7.92,6.12,9,16.6,88.2,1017.52,0.63,0,0,0,0.033073
2021/07/03 02:28:00.000,n,0,10.440002,9.72,11.16,16.6,88.2,1017.52,0.63,0,0,0,0.029602
2021/07/03 02:29:00.005,n,0,6.48,5.04,7.56,16.5,88.2,1017.52,0.63,0,0,0,0.029602
2021/07/03 02:30:00.010,n,358,7.2,6.12,7.56,16.5,88.1,1017.52,0.63,0,0,0,0.034828
2021/07/03 02:31:00.001,n,107,0.72,0,1.8,16.5,88,1017.52,0.63,0,0,0,0.027008
2021/07/03 02:32:00.006,n,353,3.24,1.8,6.12,16.5,88.1,1017.52,0.63,0,0,0,0.027008
2021/07/03 02:33:00.012,n,25,5.4,0.72,7.56,16.5,88,1017.52,0.63,0,0,0,0.027008
2021/07/03 02:34:00.001,n,13,11.52,10.08,13.32,16.5,88,1017.52,0.63,0,0,0,0.029602
2021/07/03 02:35:00.000,n,0,8.28,6.12,9.72,16.5,87.9,1017.62,0.63,0,0,0,0.027885
2021/07/03 02:36:00.000,n,350,4.32,3.96,5.4,16.5,87.8,1017.62,0.63,0,0,0,0.027885
2021/07/03 02:37:00.004,n,294,6.48,5.4,6.84,16.6,87.9,1017.62,0.63,0,0,0,0.025253
2021/07/03 02:38:00.000,n,45,2.16,1.08,2.88,16.6,87.9,1017.62,0.63,0,0,0,0.025253
2021/07/03 02:39:00.000,n,287,3.24,2.88,3.6,16.700002,87.9,1017.62,0.63,0,0,0,0.027885
2021/07/03 02:40:00.004,n,358,3.96,3.24,4.68,16.700002,87.9,1017.62,0.63,0,0,0,0.027008
2021/07/03 02:41:00.010,n,285,1.8,0.36,2.88,16.700002,87.8,1017.62,0.63,0,0,0,0.026093
2021/07/03 02:42:00.001,n,280,3.6,3.24,4.68,16.700002,87.8,1017.62,0.63,0,0,0,0.030441
2021/07/03 02:43:00.000,n,288,7.92,1.8,10.08,16.8,87.7,1017.62,0.63,0,0,0,0.024376
2021/07/03 02:44:00.000,n,283,10.440002,8.64,12.96,16.8,87.7,1017.62,0.63,0,0,0,0.029602
2021/07/03 02:45:00.004,n,85,1.08,0,2.16,16.8,87.6,1017.62,0.63,0,0,0,0.036583
2021/07/03 02:46:00.000,n,307,2.88,1.8,3.96,16.8,87.6,1017.62,0.65,1.2,0,0,0.034828
2021/07/03 02:47:00.000,n,44,2.52,2.16,3.24,16.9,87.7,1017.62,0.65,0.1,0,0,0.031395
2021/07/03 02:48:00.006,n,10,8.64,7.56,9,16.8,87.2,1017.62,0.66,0.3,0,0,0.031395
2021/07/03 02:49:00.012,n,349,2.52,0.72,5.04,16.8,87.4,1017.62,0.66,0,0,0,0.038338
2021/07/03 02:50:00.003,n,315,5.76,3.24,8.28,16.9,87.5,1017.62,0.66,0,0,0,0.036583
2021/07/03 02:51:00.009,n,7,3.6,2.52,5.04,16.9,87.4,1017.62,0.66,0,0,0,0.033112
2021/07/03 02:52:00.000,n,329,7.92,7.2,8.64,16.8,87.2,1017.62,0.66,0,0,0,0.03746
2021/07/03 02:53:00.000,n,354,5.04,3.96,5.76,16.9,87.1,1017.62,0.66,0,0,0,0.034828
2021/07/03 02:54:00.000,n,5,4.32,3.6,4.68,16.8,86.7,1017.72,0.66,0,0,0,0.033989
2021/07/03 02:55:00.000,n,346,5.76,2.88,8.64,16.700002,86.5,1017.72,0.66,0,0,0,0.033989
2021/07/03 02:56:00.006,n,1,2.88,1.8,3.96,16.700002,86.6,1017.72,0.66,0,0,0,0.03746
2021/07/03 02:57:00.000,n,355,3.6,2.16,4.68,16.700002,86.6,1017.72,0.66,0,0,0,0.031395
2021/07/03 02:58:00.001,n,289,3.24,1.44,4.68,16.8,87,1017.72,0.66,0,0,0,0.032234
2021/07/03 02:59:00.006,n,341,4.68,2.88,6.84,16.8,86.9,1017.72,0.66,0,0,0,0.031395
2021/07/03 03:00:00.012,n,306,1.8,0.72,2.88,16.8,86.6,1017.72,0.66,0,0,0,0.033989
2021/07/03 03:01:00.002,n,357,4.32,3.24,5.04,16.8,86.6,1017.72,0.66,0,0,0,0.031395
2021/07/03 03:02:00.000,n,311,2.52,1.44,3.96,16.8,86.3,1017.72,0.66,0,0,0,0.033112
2021/07/03 03:03:00.000,n,2,4.32,2.52,5.76,16.700002,86.2,1017.72,0.66,0,0,0,0.034828
2021/07/03 03:04:00.002,n,12,3.96,3.6,3.96,16.700002,86.2,1017.62,0.66,0,0,0,0.035706
2021/07/03 03:05:00.009,n,299,3.24,1.8,3.96,16.700002,86.2,1017.72,0.66,0,0,0,0.038338
2021/07/03 03:06:00.000,n,9,4.32,3.6,5.04,16.700002,86.4,1017.72,0.66,0,0,0,0.035706
2021/07/03 03:07:00.005,n,336,2.52,1.44,3.24,16.700002,86.6,1017.72,0.66,0,0,0,0.039177
2021/07/03 03:08:00.011,n,284,7.56,6.48,8.64,16.8,86.9,1017.72,0.66,0,0,0,0.036583
2021/07/03 03:09:00.000,n,341,7.2,6.12,9,16.9,86.9,1017.72,0.66,0,0,0,0.035706
2021/07/03 03:10:00.000,n,286,3.6,3.24,3.96,16.8,86.5,1017.72,0.66,0,0,0,0.032234
2021/07/03 03:11:00.000,n,353,5.04,3.6,6.48,16.8,86.5,1017.72,0.66,0,0,0,0.035706
2021/07/03 03:12:00.001,n,342,5.4,4.68,6.48,16.8,86.4,1017.72,0.66,0,0,0,0.033112
2021/07/03 03:13:00.007,n,310,3.96,3.24,5.4,16.8,86.3,1017.72,0.66,0,0,0,0.039177
2021/07/03 03:14:00.000,n,222,2.52,1.8,3.24,16.8,86.4,1017.72,0.66,0,0,0,0.031395
2021/07/03 03:15:00.002,n,245,3.6,2.88,4.32,16.8,86.2,1017.72,0.66,0,0,0,0.036583
2021/07/03 03:16:00.008,n,248,5.04,4.68,5.04,16.700002,86,1017.72,0.66,0.1,0,0,0.036583
2021/07/03 03:17:00.014,n,264,5.76,5.4,6.12,16.700002,85.9,1017.72,0.66,0,0,0,0.034828
2021/07/03 03:18:00.005,n,256,7.56,7.2,7.92,16.6,85.9,1017.72,0.66,0,0,0,0.032234
2021/07/03 03:19:00.000,n,268,6.12,5.76,6.12,16.6,85.9,1017.72,0.66,0.1,0,0,0.035706
2021/07/03 03:20:00.001,n,237,4.68,3.6,5.76,16.6,86,1017.72,0.66,0.1,0,0,0.033989
2021/07/03 03:21:00.000,n,258,6.12,5.76,6.84,16.5,86,1017.72,0.67,0,0,0,0.034828
2021/07/03 03:22:00.000,n,246,7.56,7.56,7.92,16.5,86,1017.72,0.67,0.1,0,0,0.029602
2021/07/03 03:23:00.002,n,259,5.4,4.68,6.12,16.5,86,1017.72,0.67,0,0,0,0.033989
2021/07/03 03:24:00.008,n,257,5.04,4.68,5.4,16.5,86,1017.82,0.67,0,0,0,0.036583
2021/07/03 03:25:00.000,n,252,6.48,6.48,6.84,16.5,86.1,1017.72,0.67,0,0,0,0.035706
2021/07/03 03:26:00.004,n,250,6.12,6.12,6.48,16.5,86.1,1017.72,0.67,0,0,0,0.035706
2021/07/03 03:27:00.010,n,247,5.04,5.04,5.76,16.5,86.1,1017.72,0.67,0,0,0,0.032234
2021/07/03 03:28:00.000,n,249,4.32,4.32,5.04,16.5,86.1,1017.72,0.67,0,0,0,0.035706
2021/07/03 03:29:00.000,n,238,4.32,3.6,5.04,16.6,86.2,1017.72,0.67,0,0,0,0.034828
2021/07/03 03:30:00.000,n,269,5.04,4.32,5.76,16.6,86.2,1017.62,0.67,0,0,0,0.031395
2021/07/03 03:31:00.000,n,255,3.6,0.72,5.04,16.6,86.2,1017.62,0.67,0,0,0,0.030479
2021/07/03 03:32:00.005,n,272,9,8.28,9.72,16.6,86.2,1017.62,0.67,0,0,0,0.031395
2021/07/03 03:33:00.000,n,263,6.84,6.12,7.92,16.6,86.1,1017.62,0.67,0,0,0,0.034828
2021/07/03 03:34:00.000,n,269,5.04,4.68,5.4,16.6,86.1,1017.52,0.67,0,0,0,0.035706
2021/07/03 03:35:00.006,n,283,7.56,7.2,8.28,16.6,86.1,1017.52,0.67,0,0,0,0.033112
2021/07/03 03:36:00.011,n,260,7.56,6.12,8.28,16.6,86.1,1017.52,0.67,0,0,0,0.036583
2021/07/03 03:37:00.000,n,231,6.84,6.12,7.2,16.6,86.1,1017.52,0.67,0,0,0,0.036583
2021/07/03 03:38:00.000,n,202,4.32,2.88,5.76,16.6,86.1,1017.42,0.67,0,0,0,0.038338
2021/07/03 03:39:00.000,n,155,3.24,1.08,3.96,16.6,86.1,1017.42,0.67,0,0,0,0.034828
2021/07/03 03:40:00.002,n,130,2.16,1.8,3.24,16.6,86.1,1017.42,0.67,0,0,0,0.032234
2021/07/03 03:41:00.008,n,205,1.44,0.72,1.8,16.6,86.2,1017.42,0.67,0,0,0,0.031395
2021/07/03 03:42:00.000,n,167,4.68,4.32,5.04,16.6,86.2,1017.42,0.67,0,0,0,0.03746
2021/07/03 03:43:00.004,n,141,5.76,5.4,6.84,16.6,86.3,1017.42,0.67,0.1,0,0,0.034828
2021/07/03 03:44:00.011,n,153,5.4,5.04,5.76,16.6,86.3,1017.42,0.68,0.7,0,0,0.03746
2021/07/03 03:45:00.001,n,146,5.04,4.68,5.4,16.6,86.4,1017.32,0.69,0.3,0,0,0.031395
2021/07/03 03:46:00.000,n,168,10.08,9.36,10.8,16.6,86.4,1017.32,0.71,1.2,0,0,0.035706
2021/07/03 03:47:00.000,n,182,6.12,4.32,7.92,16.6,86.4,1017.32,0.73,1.5,0,0,0.033989
2021/07/03 03:48:00.003,n,186,9.36,8.28,10.440002,16.5,86.4,1017.32,0.75,0.9,0,0,0.035706
2021/07/03 03:49:00.000,n,193,6.84,5.4,8.28,16.5,86.5,1017.32,0.77,0.9,0,0,0.032234
2021/07/03 03:50:00.000,n,131,5.76,4.32,6.84,16.5,86.6,1017.32,0.78,1,0,0,0.033112
2021/07/03 03:51:00.005,n,133,5.04,4.32,5.4,16.5,86.6,1017.32,0.8,1.2,0,0,0.030479
2021/07/03 03:52:00.012,n,153,3.6,1.44,5.04,16.5,86.6,1017.32,0.82,1.2,0,0,0.030479
2021/07/03 03:53:00.002,n,155,6.84,5.4,7.92,16.5,86.7,1017.32,0.85,1.6,0,0,0.030479
2021/07/03 03:54:00.008,n,175,7.92,6.84,10.08,16.5,86.6,1017.32,0.87,1.1,0,0,0.033989
2021/07/03 03:55:00.000,n,156,7.92,6.84,9,16.5,86.7,1017.32,0.88,0.6,0,0,0.028763
2021/07/03 03:56:00.000,n,153,8.28,7.2,9,16.5,86.7,1017.32,0.89,0.6,0,0,0.032234
2021/07/03 03:57:00.000,n,142,6.12,5.04,6.48,16.5,86.7,1017.32,0.9,0.8,0,0,0.030479
2021/07/03 03:58:00.000,n,163,6.12,5.76,6.48,16.5,86.7,1017.32,0.91,0.4,0,0,0.029602
2021/07/03 03:59:00.006,n,156,3.96,2.88,5.04,16.5,86.8,1017.32,0.92,0.6,0,0,0.028763
2021/07/03 04:00:00.000,n,144,4.32,2.88,4.68,16.5,86.8,1017.22,0.93,0.3,0,0,0.029602
2021/07/03 04:01:00.002,n,192,7.56,7.2,8.64,16.5,86.8,1017.22,0.93,0.1,0,0,0.029602
2021/07/03 04:02:00.008,n,181,5.76,5.04,6.48,16.5,86.9,1017.22,0.94,0.5,0,0,0.028763
2021/07/03 04:03:00.015,n,173,3.24,2.52,3.6,16.5,86.9,1017.32,0.94,0.1,0,0,0.030479
2021/07/03 04:04:00.000,n,150,2.52,1.8,2.52,16.5,87,1017.32,0.94,0.2,0,0,0.028763
2021/07/03 04:05:00.000,n,185,4.68,3.96,5.76,16.5,87,1017.32,0.95,0.3,0,0,0.030479
2021/07/03 04:06:00.000,n,172,1.08,0,3.6,16.5,87,1017.32,0.96,0.5,0,0,0.029602
2021/07/03 04:07:00.006,n,217,2.88,2.52,4.32,16.5,87,1017.32,0.98,0.9,0,0,0.031395
2021/07/03 04:08:00.000,n,166,5.76,5.4,6.48,16.5,87,1017.32,1,1.1,0,0,0.029602
2021/07/03 04:09:00.003,n,145,5.76,5.4,6.12,16.5,87,1017.32,1.01,0.9,0,0,0.032234
2021/07/03 04:10:00.010,n,149,5.04,4.68,5.4,16.4,87,1017.32,1.02,0.4,0,0,0.033112
2021/07/03 04:11:00.000,n,147,1.8,0.72,3.6,16.4,87,1017.32,1.02,0.3,0,0,0.032234
2021/07/03 04:12:00.005,n,143,3.6,3.24,3.96,16.4,87.1,1017.32,1.03,0.3,0,0,0.033112
2021/07/03 04:13:00.000,n,127,2.52,2.16,2.88,16.4,87.1,1017.42,1.04,0.3,0,0,0.032234
2021/07/03 04:14:00.002,n,139,3.24,2.52,3.6,16.4,87.1,1017.42,1.04,0.4,0,0,0.027885
2021/07/03 04:15:00.000,n,151,3.24,2.52,3.96,16.4,87.1,1017.42,1.05,0.2,0,0,0.034828
2021/07/03 04:16:00.000,n,122,1.44,0.72,1.44,16.5,87.2,1017.42,1.05,0.1,0,0,0.027046
2021/07/03 04:17:00.005,n,136,1.08,0.72,1.44,16.5,87.2,1017.42,1.05,0.1,0,0,0.029602
2021/07/03 04:18:00.000,n,63,1.44,0.72,2.16,16.5,87.2,1017.42,1.05,0,0,0,0.028763
2021/07/03 04:19:00.001,n,50,2.16,1.44,2.52,16.5,87.4,1017.32,1.05,0,0,0,0.027885
2021/07/03 04:20:00.007,n,83,2.52,2.16,3.24,16.5,87.3,1017.32,1.06,0.1,0,0,0.030479
2021/07/03 04:21:00.013,n,87,3.24,2.88,3.96,16.5,87.3,1017.22,1.06,0,0,0,0.031395
2021/07/03 04:22:00.000,n,73,2.16,1.8,2.52,16.5,87.2,1017.22,1.06,0,0,0,0.030479
2021/07/03 04:23:00.000,n,74,2.88,2.52,3.24,16.5,87.2,1017.22,1.06,0,0,0,0.030479
2021/07/03 04:24:00.000,n,73,2.16,1.44,2.88,16.5,87.2,1017.22,1.06,0,0,0,0.033112
2021/07/03 04:25:00.003,n,113,1.8,1.8,2.16,16.5,87.2,1017.22,1.06,0,0,0,0.030479
2021/07/03 04:26:00.008,n,120,1.8,1.08,2.16,16.5,87.2,1017.22,1.06,0,0,0,0.027046
2021/07/03 04:27:00.000,n,149,2.52,2.52,2.52,16.5,87.2,1017.22,1.06,0,0,0,0.032234
2021/07/03 04:28:00.003,n,143,2.16,2.16,2.52,16.5,87.2,1017.22,1.06,0,0,0,0.033989
2021/07/03 04:29:00.010,n,167,1.44,1.08,1.8,16.5,87.2,1017.22,1.06,0,0,0,0.033989
2021/07/03 04:30:00.015,n,166,1.08,0.72,1.08,16.5,87.2,1017.22,1.06,0,0,0,0.026131
2021/07/03 04:31:00.000,n,167,1.08,1.08,1.44,16.5,87.2,1017.22,1.06,0,0,0,0.031395
2021/07/03 04:32:00.000,n,179,1.44,1.08,1.8,16.5,87.2,1017.32,1.06,0,0,0,0.032234
2021/07/03 04:33:00.000,n,191,0.72,0.72,1.08,16.5,87.2,1017.32,1.06,0,0,0,0.032234
2021/07/03 04:34:00.006,n,85,0.72,0,1.44,16.5,87.3,1017.32,1.06,0,0,0,0.031395
2021/07/03 04:35:00.000,n,75,1.08,0.72,1.08,16.5,87.4,1017.32,1.06,0,0,0,0.029602
2021/07/03 04:36:00.001,n,113,0.72,0.36,1.08,16.5,87.5,1017.22,1.06,0,0,0,0.029602
2021/07/03 04:37:00.007,n,83,2.16,1.8,2.16,16.6,87.4,1017.22,1.06,0,0,0,0.033112
2021/07/03 04:38:00.013,n,105,2.52,2.16,2.52,16.5,87.3,1017.22,1.06,0,0,0,0.033989
2021/07/03 04:39:00.002,n,122,1.44,1.44,1.8,16.5,87.2,1017.12,1.06,0,0,0,0.033112
2021/07/03 04:40:00.000,n,112,1.44,1.44,1.8,16.5,87.2,1017.12,1.06,0,0,0,0.029602